Other Public Products
Issued by NWS Charleston, SC

Home | Current Version | Previous Version | Text Only | Print | Product List | Glossary On
Versions: 1 2 3 4 5 6 7 8 9 10 11 12 13 14 15 16 17 18 19 20 21 22 23 24 25 26 27 28 29 30 31 32 33 34 35 36 37 38 39 40 41 42 43 44 45 46 47 48 49 50
000
FPUS82 KCHS 041727
OPUCHS

TEST...KCHS/KSAV Gateway Observations...TEST
National Weather Service Charleston SC
1200 PM EST SUN DEC 04 2016

NOTE: "fair" indicates few or no clouds below 12,000 feet with no
significant weather and/or obstructions to visibility.

SCZ050-WAZ558-NCZ071-TXZ119-213-PAZ071-DCZ001-FLZ074-172-MI076-
NYZ176-178-MAZ016-IL014-TNZ027-NJZ106-GAZ044-MD014-041800-
...Gateway Observations for Charleston International...

CITY           SKY/WX    TMP DP  RH WIND       PRES   REMARKS
Chas Airport   CLOUDY    58  43  57 NE8       30.20F
Seattle        LGT RAIN  38  36  92 E7        30.03R WCI  33
Charlotte      RAIN      41  38  89 VRB7      30.24F FOG
Dallas DFW     CLOUDY    50  44  80 N12       30.07R
Dallas Love    CLOUDY    51  45  79 N12       30.07R
Philladelphia  CLOUDY    46  25  43 NW9       30.23F
Wash National  CLOUDY    45  31  58 CALM      30.26F
Baltimore      CLOUDY    46  29  51 N6        30.24F
Miami          PTSUNNY   78  68  71 SE14G24   30.06F
Detroit        CLOUDY    38  28  67 S7        30.18F WCI  33
Newark         MOSUNNY   45  22  40 NW8       30.21F
Laguardia      MOSUNNY   45  23  42 N9G18     30.21F
J F K          MOSUNNY   46  21  37 NW17      30.22F
Boston Logan   MOSUNNY   39  21  48 NW9       30.17S WCI  33
Ft. Lauderdale CLOUDY    80  68  66 SE16      30.06F
Chicago O`Hare SNOW      31  30  96 S5        30.04F VSB 1/4 WCI  26
Chicago Midway LGT SNOW  34  27  75 SE6       30.06F WCI  29
Houston Bush   RAIN      52  50  93 NW13      30.01R
Houston Hobby  LGT RAIN  54  52  93 N13       29.98F
Nashville      DRIZZLE   47  44  90 SE8       30.00F
Atlanta        LGT RAIN  45  45 100 E13       30.12F FOG

$$

GAZ044-118-TXZ119-213-NCZ071-DCZ001-MDZ014-506-PAZ021-071-NJZ106-
NYZ176-178-MAZ106-OHZ011-021-055-MIZ076-KYZ091-ILZ014-INZ047-
MNZ060-041800-
...Gateway Observations for Savannah International...

CITY           SKY/WX    TMP DP  RH WIND       PRES   REMARKS
Savannah Arpt  PTSUNNY   65  49  56 E12       30.14F
Atlanta        LGT RAIN  45  45 100 E13       30.12F FOG
Charlotte      RAIN      41  38  89 VRB7      30.24F FOG
Dallas DFW     CLOUDY    50  44  80 N12       30.07R
Houston Bush   RAIN      52  50  93 NW13      30.01R
Wash National  CLOUDY    45  31  58 CALM      30.26F
Wash Dulles    CLOUDY    44  27  51 N3        30.26F
Baltimore      CLOUDY    46  29  51 N6        30.24F
Philadelphia   CLOUDY    46  25  43 NW9       30.23F
Newark         MOSUNNY   45  22  40 NW8       30.21F
Laguardia      MOSUNNY   45  23  42 N9G18     30.21F
J F K          MOSUNNY   46  21  37 NW17      30.22F
Boston         MOSUNNY   39  21  48 NW9       30.17S WCI  33
Pittsburg      CLOUDY    39  28  64 E8        30.19F WCI  33
Akron          CLOUDY    38  25  59 SE9       30.17F WCI  31
Cleveland      CLOUDY    40  25  55 SE7       30.20F WCI  35
Cincinnati     CLOUDY    42  30  62 E13       30.05F
Columbus       CLOUDY    40  29  65 SE10      30.13F WCI  33
Detroit        CLOUDY    38  28  67 S7        30.18F WCI  33
Chicago O`Hare SNOW      31  30  96 S5        30.04F VSB 1/4 WCI  26
Minneapolis    CLOUDY    34  32  92 S8        29.87F FOG     WCI  27
Indianapolis   CLOUDY    40  31  70 SE13      30.02F WCI  32

$$




USA.gov is the U.S. government's official web portal to all federal, state and local government web resources and services.